Location: Le Vaud
(46.4779°N, 6.2346°E)
Time: 08:12:33
(UTC+00:00)

Cosmos 1606 - Pass Details

Date: 18 February 2020
Orbit: 505 x 527 km, 82.5° (Epoch: 31 March)

Event Time Altitude Azimuth Distance (km) Brightness Sun altitude
Rises 05:58:13 0° 177° (S) 2,623 6.5 -7.0°
Reaches altitude 10° 06:00:22 10° 172° (S) 1,737 5.6 -6.6°
Maximum altitude 06:04:05 54° 95° (E) 630 3.6 -6.0°
Drops below altitude 10° 06:07:48 10° 18° (NNE) 1,740 5.5 -5.3°
Sets 06:09:57 0° 14° (NNE) 2,628 6.3 -5.0°
